Location: Eschentzwiller
(47.7125°N, 7.3981°E)
Time: 01:07:19
(UTC+00:00)

Cosmos 1354 Rocket - Pass Details

Date: 27 October 2020
Orbit: 764 x 783 km, 74.0° (Epoch: 26 November)

Event Time Altitude Azimuth Distance (km) Brightness Sun altitude
Rises 18:38:29 0° 336° (NNW) 3,247 7.7 -23.8°
Reaches altitude 10° 18:40:52 10° 335° (NNW) 2,319 6.9 -24.2°
Maximum altitude 18:46:07 76° 251° (WSW) 799 4.1 -25.1°
Enters shadow 18:47:54 42° 174° (S) 1,091 4.6 -25.4°
